sat.trackr.live / text

‹ back to catalog

STARLINK-3796

NORAD 52372 · 2022-045AT

PAYLOAD ACTIVE UNKNOWN

§ Identity

Operator
Country
US
Launch date
2022-04-29
Launch site
AFETR
Launch vehicle
Mass (kg)
RCS (m²)

Purposes: comms

External: N2YO · Heavens-Above · Gunter

§ Orbital elements

Epoch: 2026-05-25T04:49:10.091136Z

Period
95.44 min
Inclination
53.2122°
Eccentricity
0.0000929
Mean motion
15.08831827 rev/d
Perigee alt
539.1 km
Apogee alt
540.4 km
Semi-major
6,917.9 km
B*
-1.8218e-5
RAAN
205.6484°
Arg perigee
63.9625°
Mean anomaly
296.1462°
Rev number
22,746

§ Raw data

STARLINK-37961 52372U 22045AT  26145.20081124 -.00000578  00000+0 -18218-4 0  99932 52372  53.2122 205.6484 0000929  63.9625 296.1462 15.08831827227460

JSON: /api/v1/satellites/52372 · /tle

For live sub-satellite position, see the globe view (requires WebGL).

§ Visibility from observer

Set your observer location to see the next 7 days of passes ≥ 10°. The values pass through the URL so the page stays shareable.

No JS? Fill the form by hand. The geolocation button needs JavaScript.